This is the latest recevied weather packets stored in our database for station/object KC1BRV. If no packets are shown the sender has not sent any weather packets the latest 10 day(s).
| Time | Temp. | Humidity | Pressure | Rain* | Wind** | Luminosity | Snow |
|---|---|---|---|---|---|---|---|
| 1788178475 | 17.22° C | 99% | 1021.4 hPa | 0 mm | - | 28 W/m² | - |
| 1788178171 | 17.22° C | 99% | 1021.3 hPa | 0 mm | - | 24 W/m² | - |
| 1788177866 | 17.22° C | 99% | 1021.3 hPa | 0 mm | - | 36 W/m² | - |
| 1788177565 | 17.22° C | 99% | 1021.1 hPa | 0 mm | - | 36 W/m² | - |
| 1788177262 | 17.22° C | 99% | 1021.3 hPa | 0 mm | - | 39 W/m² | - |
| 1788176961 | 17.22° C | 99% | 1021.2 hPa | 0 mm | - | 37 W/m² | - |
| 1788176660 | 17.22° C | 99% | 1021.1 hPa | 0 mm | - | 26 W/m² | - |
| 1788176356 | 16.67° C | 99% | 1021.2 hPa | 0 mm | - | 29 W/m² | - |
| 1788176056 | 16.67° C | 99% | 1021.3 hPa | 0 mm | - | 34 W/m² | - |
| 1788175751 | 16.67° C | 99% | 1021 hPa | 0 mm | - | 33 W/m² | - |
| 1788175446 | 16.67° C | 99% | 1021.2 hPa | 0 mm | - | 25 W/m² | - |
| 1788175141 | 16.67° C | 99% | 1021.2 hPa | 0 mm | - | 20 W/m² | - |
| 1788174837 | 16.67° C | 99% | 1021.1 hPa | 0 mm | - | 24 W/m² | - |
| 1788174533 | 16.67° C | 99% | 1021 hPa | 0 mm | - | 31 W/m² | - |
| 1788174232 | 16.67° C | 99% | 1020.6 hPa | 0 mm | - | 33 W/m² | - |
| 1788173931 | 16.67° C | 99% | 1020.8 hPa | 0 mm | - | 21 W/m² | - |
| 1788173627 | 16.67° C | 99% | 1020.7 hPa | 0 mm | - | 19 W/m² | - |
| 1788173322 | 16.67° C | 99% | 1020.6 hPa | 0 mm | - | 18 W/m² | - |
| 1788173019 | 16.67° C | 99% | 1020.8 hPa | 0 mm | - | 14 W/m² | - |
| 1788172718 | 16.67° C | 99% | 1020.6 hPa | 0 mm | - | 13 W/m² | - |
| 1788172408 | 16.67° C | 99% | 1020.7 hPa | 0 mm | - | 9 W/m² | - |
| 1788172109 | 16.11° C | 99% | 1020.4 hPa | 0 mm | - | 7 W/m² | - |
| 1788171803 | 16.11° C | 99% | 1020.2 hPa | 0 mm | - | 5 W/m² | - |
| 1788171500 | 16.67° C | 99% | 1020.3 hPa | 0 mm | - | 3 W/m² | - |
| 1788171195 | 16.67° C | 99% | 1020.1 hPa | 0 mm | - | 2 W/m² | - |
* Rain latest hour (hover to see other rain measurements)
** Current wind speed in m/s (hover to see current wind gust speed)